Time,TemperatureF,DewpointF,PressureIn,WindDirection,WindDirectionDegrees,WindSpeedMPH,WindSpeedGustMPH,Humidity,HourlyPrecipIn,Conditions,Clouds,dailyrainin,SoftwareType,DateUTC
2013-06-14 00:00:00,70.6,66.2,29.75,WNW,293,0.0,-999.0,86,0.00,,,0.00,Wunderground v.1.15,2013-06-14 04:00:00,
2013-06-14 00:05:00,70.6,66.2,29.75,WNW,293,0.0,-999.0,86,0.00,,,0.00,Wunderground v.1.15,2013-06-14 04:05:00,
2013-06-14 00:10:00,70.6,66.2,29.75,WNW,293,0.0,-999.0,86,0.00,,,0.00,Wunderground v.1.15,2013-06-14 04:10:00,
2013-06-14 00:15:00,70.6,66.2,29.75,WNW,293,0.0,-999.0,86,0.00,,,0.00,Wunderground v.1.15,2013-06-14 04:15:00,
2013-06-14 00:20:00,70.6,66.2,29.75,WNW,293,0.0,-999.0,86,0.00,,,0.00,Wunderground v.1.15,2013-06-14 04:20:00,
2013-06-14 00:25:00,70.6,66.2,29.75,WNW,293,0.0,-999.0,86,0.00,,,0.00,Wunderground v.1.15,2013-06-14 04:25:00,
2013-06-14 00:30:00,70.6,66.2,29.75,WNW,293,0.0,-999.0,86,0.00,,,0.00,Wunderground v.1.15,2013-06-14 04:30:00,
2013-06-14 00:35:00,70.6,66.2,29.75,WNW,293,0.0,-999.0,86,0.00,,,0.00,Wunderground v.1.15,2013-06-14 04:35:00,
2013-06-14 00:40:00,70.6,66.2,29.75,WNW,293,0.0,-999.0,86,0.00,,,0.00,Wunderground v.1.15,2013-06-14 04:40:00,
2013-06-14 00:45:00,70.7,65.6,29.77,NNE,23,0.0,-999.0,84,0.00,,,0.00,Wunderground v.1.15,2013-06-14 04:45:00,
2013-06-14 00:50:00,70.7,65.6,29.77,NNE,23,0.0,-999.0,84,0.00,,,0.00,Wunderground v.1.15,2013-06-14 04:50:00,
2013-06-14 00:55:00,70.7,65.6,29.77,NNE,23,0.0,-999.0,84,0.00,,,0.00,Wunderground v.1.15,2013-06-14 04:55:00,
2013-06-14 01:00:00,70.7,65.6,29.77,NNE,23,0.0,-999.0,84,0.00,,,0.00,Wunderground v.1.15,2013-06-14 05:00:00,
2013-06-14 01:05:00,70.7,65.6,29.77,NNE,23,0.0,-999.0,84,0.00,,,0.00,Wunderground v.1.15,2013-06-14 05:05:00,
2013-06-14 01:10:00,70.7,65.6,29.77,NNE,23,0.0,-999.0,84,0.00,,,0.00,Wunderground v.1.15,2013-06-14 05:10:00,
2013-06-14 01:15:00,70.3,63.5,29.77,NNE,23,0.0,-999.0,79,0.00,,,0.00,Wunderground v.1.15,2013-06-14 05:15:00,
2013-06-14 01:20:00,70.3,63.5,29.77,NNE,23,0.0,-999.0,79,0.00,,,0.00,Wunderground v.1.15,2013-06-14 05:20:00,
2013-06-14 01:25:00,70.3,63.5,29.77,NNE,23,0.0,-999.0,79,0.00,,,0.00,Wunderground v.1.15,2013-06-14 05:25:00,
2013-06-14 01:30:00,70.3,63.5,29.77,NNE,23,0.0,-999.0,79,0.00,,,0.00,Wunderground v.1.15,2013-06-14 05:30:00,
2013-06-14 01:35:00,70.3,63.5,29.77,NNE,23,0.0,-999.0,79,0.00,,,0.00,Wunderground v.1.15,2013-06-14 05:35:00,
2013-06-14 01:40:00,70.3,63.5,29.77,NNE,23,0.0,-999.0,79,0.00,,,0.00,Wunderground v.1.15,2013-06-14 05:40:00,
2013-06-14 01:45:00,70.4,61.3,29.77,ESE,113,1.0,-999.0,73,0.00,,,0.00,Wunderground v.1.15,2013-06-14 05:45:00,
2013-06-14 01:50:00,70.4,61.3,29.77,ESE,113,1.0,-999.0,73,0.00,,,0.00,Wunderground v.1.15,2013-06-14 05:50:00,
2013-06-14 01:55:00,70.4,61.3,29.77,ESE,113,1.0,-999.0,73,0.00,,,0.00,Wunderground v.1.15,2013-06-14 05:55:00,
2013-06-14 02:00:00,70.4,61.3,29.77,ESE,113,1.0,-999.0,73,0.00,,,0.00,Wunderground v.1.15,2013-06-14 06:00:00,
2013-06-14 02:05:00,70.4,61.3,29.77,ESE,113,1.0,-999.0,73,0.00,,,0.00,Wunderground v.1.15,2013-06-14 06:05:00,
2013-06-14 02:10:00,70.4,61.3,29.77,ESE,113,1.0,-999.0,73,0.00,,,0.00,Wunderground v.1.15,2013-06-14 06:10:00,
2013-06-14 02:15:00,69.9,59.3,29.79,ESE,113,1.0,-999.0,69,0.00,,,0.00,Wunderground v.1.15,2013-06-14 06:15:00,
2013-06-14 02:20:00,69.9,59.3,29.79,ESE,113,1.0,-999.0,69,0.00,,,0.00,Wunderground v.1.15,2013-06-14 06:20:00,
2013-06-14 02:25:00,69.9,59.3,29.79,ESE,113,1.0,-999.0,69,0.00,,,0.00,Wunderground v.1.15,2013-06-14 06:25:00,
2013-06-14 02:30:00,69.9,59.3,29.79,ESE,113,1.0,-999.0,69,0.00,,,0.00,Wunderground v.1.15,2013-06-14 06:30:00,
2013-06-14 02:35:00,69.9,59.3,29.79,ESE,113,1.0,-999.0,69,0.00,,,0.00,Wunderground v.1.15,2013-06-14 06:35:00,
2013-06-14 02:40:00,69.9,59.3,29.79,ESE,113,1.0,-999.0,69,0.00,,,0.00,Wunderground v.1.15,2013-06-14 06:40:00,
2013-06-14 02:45:00,69.2,58.6,29.79,SE,135,1.0,-999.0,69,0.00,,,0.00,Wunderground v.1.15,2013-06-14 06:45:00,
2013-06-14 02:50:00,69.2,58.6,29.79,SE,135,1.0,-999.0,69,0.00,,,0.00,Wunderground v.1.15,2013-06-14 06:50:00,
2013-06-14 02:55:00,69.2,58.6,29.79,SE,135,1.0,-999.0,69,0.00,,,0.00,Wunderground v.1.15,2013-06-14 06:55:00,
2013-06-14 03:00:00,69.2,58.6,29.79,SE,135,1.0,-999.0,69,0.00,,,0.00,Wunderground v.1.15,2013-06-14 07:00:00,
2013-06-14 03:05:00,69.2,58.6,29.79,SE,135,1.0,-999.0,69,0.00,,,0.00,Wunderground v.1.15,2013-06-14 07:05:00,
2013-06-14 03:10:00,69.2,58.6,29.79,SE,135,1.0,-999.0,69,0.00,,,0.00,Wunderground v.1.15,2013-06-14 07:10:00,
2013-06-14 03:15:00,68.4,58.2,29.79,NE,45,0.0,-999.0,70,0.00,,,0.00,Wunderground v.1.15,2013-06-14 07:15:00,
2013-06-14 03:20:00,68.4,58.2,29.79,NE,45,0.0,-999.0,70,0.00,,,0.00,Wunderground v.1.15,2013-06-14 07:20:00,
2013-06-14 03:25:00,68.4,58.2,29.79,NE,45,0.0,-999.0,70,0.00,,,0.00,Wunderground v.1.15,2013-06-14 07:25:00,
2013-06-14 03:30:00,68.4,58.2,29.79,NE,45,0.0,-999.0,70,0.00,,,0.00,Wunderground v.1.15,2013-06-14 07:30:00,
2013-06-14 03:35:00,68.4,58.2,29.79,NE,45,0.0,-999.0,70,0.00,,,0.00,Wunderground v.1.15,2013-06-14 07:35:00,
2013-06-14 03:40:00,68.4,58.2,29.79,NE,45,0.0,-999.0,70,0.00,,,0.00,Wunderground v.1.15,2013-06-14 07:40:00,
2013-06-14 03:45:00,67.9,57.4,29.79,SSE,158,0.0,-999.0,69,0.00,,,0.00,Wunderground v.1.15,2013-06-14 07:45:00,
2013-06-14 03:50:00,67.9,57.4,29.79,SSE,158,0.0,-999.0,69,0.00,,,0.00,Wunderground v.1.15,2013-06-14 07:50:00,
2013-06-14 03:55:00,67.9,57.4,29.79,SSE,158,0.0,-999.0,69,0.00,,,0.00,Wunderground v.1.15,2013-06-14 07:55:00,
2013-06-14 04:00:00,67.9,57.4,29.79,SSE,158,0.0,-999.0,69,0.00,,,0.00,Wunderground v.1.15,2013-06-14 08:00:00,
2013-06-14 04:05:00,67.9,57.4,29.79,SSE,158,0.0,-999.0,69,0.00,,,0.00,Wunderground v.1.15,2013-06-14 08:05:00,
2013-06-14 04:10:00,67.9,57.4,29.79,SSE,158,0.0,-999.0,69,0.00,,,0.00,Wunderground v.1.15,2013-06-14 08:10:00,
2013-06-14 04:15:00,67.3,57.2,29.79,SE,135,0.0,-999.0,70,0.00,,,0.00,Wunderground v.1.15,2013-06-14 08:15:00,
2013-06-14 04:20:00,67.3,57.2,29.79,SE,135,0.0,-999.0,70,0.00,,,0.00,Wunderground v.1.15,2013-06-14 08:20:00,
2013-06-14 04:25:00,67.3,57.2,29.79,SE,135,0.0,-999.0,70,0.00,,,0.00,Wunderground v.1.15,2013-06-14 08:25:00,
2013-06-14 04:30:00,67.3,57.2,29.79,SE,135,0.0,-999.0,70,0.00,,,0.00,Wunderground v.1.15,2013-06-14 08:30:00,
2013-06-14 04:35:00,67.3,57.2,29.79,SE,135,0.0,-999.0,70,0.00,,,0.00,Wunderground v.1.15,2013-06-14 08:35:00,
2013-06-14 04:40:00,67.3,57.2,29.79,SE,135,0.0,-999.0,70,0.00,,,0.00,Wunderground v.1.15,2013-06-14 08:40:00,
2013-06-14 04:45:00,66.4,57.1,29.79,South,180,0.0,-999.0,72,0.00,,,0.00,Wunderground v.1.15,2013-06-14 08:45:00,
2013-06-14 04:50:00,66.4,57.1,29.79,South,180,0.0,-999.0,72,0.00,,,0.00,Wunderground v.1.15,2013-06-14 08:50:00,
2013-06-14 04:55:00,66.4,57.1,29.79,South,180,0.0,-999.0,72,0.00,,,0.00,Wunderground v.1.15,2013-06-14 08:55:00,
2013-06-14 05:00:00,66.4,57.1,29.79,South,180,0.0,-999.0,72,0.00,,,0.00,Wunderground v.1.15,2013-06-14 09:00:00,
2013-06-14 05:05:00,66.4,57.1,29.79,South,180,0.0,-999.0,72,0.00,,,0.00,Wunderground v.1.15,2013-06-14 09:05:00,
2013-06-14 05:10:00,66.4,57.1,29.79,South,180,0.0,-999.0,72,0.00,,,0.00,Wunderground v.1.15,2013-06-14 09:10:00,
2013-06-14 05:15:00,66.1,57.6,29.79,South,180,0.0,-999.0,74,0.00,,,0.00,Wunderground v.1.15,2013-06-14 09:15:00,
2013-06-14 05:20:00,66.1,57.6,29.79,South,180,0.0,-999.0,74,0.00,,,0.00,Wunderground v.1.15,2013-06-14 09:20:00,
2013-06-14 05:25:00,66.1,57.6,29.79,South,180,0.0,-999.0,74,0.00,,,0.00,Wunderground v.1.15,2013-06-14 09:25:00,
2013-06-14 05:30:00,66.1,57.6,29.79,South,180,0.0,-999.0,74,0.00,,,0.00,Wunderground v.1.15,2013-06-14 09:30:00,
2013-06-14 05:35:00,66.1,57.6,29.79,South,180,0.0,-999.0,74,0.00,,,0.00,Wunderground v.1.15,2013-06-14 09:35:00,
2013-06-14 05:40:00,66.1,57.6,29.79,South,180,0.0,-999.0,74,0.00,,,0.00,Wunderground v.1.15,2013-06-14 09:40:00,
2013-06-14 05:45:00,65.4,57.6,29.81,SSE,158,0.0,-999.0,76,0.00,,,0.00,Wunderground v.1.15,2013-06-14 09:45:00,
2013-06-14 05:50:00,65.4,57.6,29.81,SSE,158,0.0,-999.0,76,0.00,,,0.00,Wunderground v.1.15,2013-06-14 09:50:00,
2013-06-14 05:55:00,65.4,57.6,29.81,SSE,158,0.0,-999.0,76,0.00,,,0.00,Wunderground v.1.15,2013-06-14 09:55:00,
2013-06-14 06:00:00,65.4,57.6,29.81,SSE,158,0.0,-999.0,76,0.00,,,0.00,Wunderground v.1.15,2013-06-14 10:00:00,
2013-06-14 06:05:00,65.4,57.6,29.81,SSE,158,0.0,-999.0,76,0.00,,,0.00,Wunderground v.1.15,2013-06-14 10:05:00,
2013-06-14 06:10:00,65.4,57.6,29.81,SSE,158,0.0,-999.0,76,0.00,,,0.00,Wunderground v.1.15,2013-06-14 10:10:00,
2013-06-14 06:15:00,65.3,58.6,29.82,SSE,158,0.0,-999.0,79,0.00,,,0.00,Wunderground v.1.15,2013-06-14 10:15:00,
2013-06-14 06:20:00,65.3,58.6,29.82,SSE,158,0.0,-999.0,79,0.00,,,0.00,Wunderground v.1.15,2013-06-14 10:20:00,
2013-06-14 06:25:00,65.3,58.6,29.82,SSE,158,0.0,-999.0,79,0.00,,,0.00,Wunderground v.1.15,2013-06-14 10:25:00,
2013-06-14 06:30:00,65.3,58.6,29.82,SSE,158,0.0,-999.0,79,0.00,,,0.00,Wunderground v.1.15,2013-06-14 10:30:00,
2013-06-14 06:35:00,65.3,58.6,29.82,SSE,158,0.0,-999.0,79,0.00,,,0.00,Wunderground v.1.15,2013-06-14 10:35:00,
2013-06-14 06:40:00,65.3,58.6,29.82,SSE,158,0.0,-999.0,79,0.00,,,0.00,Wunderground v.1.15,2013-06-14 10:40:00,
2013-06-14 06:45:00,65.4,59.1,29.82,South,180,0.0,-999.0,80,0.00,,,0.00,Wunderground v.1.15,2013-06-14 10:45:00,
2013-06-14 06:50:00,65.4,59.1,29.82,South,180,0.0,-999.0,80,0.00,,,0.00,Wunderground v.1.15,2013-06-14 10:50:00,
2013-06-14 06:55:00,65.4,59.1,29.82,South,180,0.0,-999.0,80,0.00,,,0.00,Wunderground v.1.15,2013-06-14 10:55:00,
2013-06-14 07:00:00,65.4,59.1,29.82,South,180,0.0,-999.0,80,0.00,,,0.00,Wunderground v.1.15,2013-06-14 11:00:00,
2013-06-14 07:05:00,65.4,59.1,29.82,South,180,0.0,-999.0,80,0.00,,,0.00,Wunderground v.1.15,2013-06-14 11:05:00,
2013-06-14 07:10:00,65.4,59.1,29.82,South,180,0.0,-999.0,80,0.00,,,0.00,Wunderground v.1.15,2013-06-14 11:10:00,
2013-06-14 07:15:00,67.4,59.9,29.83,SW,225,1.0,-999.0,77,0.00,,,0.00,Wunderground v.1.15,2013-06-14 11:15:00,
2013-06-14 07:20:00,67.4,59.9,29.83,SW,225,1.0,-999.0,77,0.00,,,0.00,Wunderground v.1.15,2013-06-14 11:20:00,
2013-06-14 07:25:00,67.4,59.9,29.83,SW,225,1.0,-999.0,77,0.00,,,0.00,Wunderground v.1.15,2013-06-14 11:25:00,
2013-06-14 07:30:00,67.4,59.9,29.83,SW,225,1.0,-999.0,77,0.00,,,0.00,Wunderground v.1.15,2013-06-14 11:30:00,
2013-06-14 07:35:00,67.4,59.9,29.83,SW,225,1.0,-999.0,77,0.00,,,0.00,Wunderground v.1.15,2013-06-14 11:35:00,
2013-06-14 07:40:00,67.4,59.9,29.83,SW,225,1.0,-999.0,77,0.00,,,0.00,Wunderground v.1.15,2013-06-14 11:40:00,
2013-06-14 07:45:00,70.1,61.0,29.85,SW,225,1.0,-999.0,73,0.00,,,0.00,Wunderground v.1.15,2013-06-14 11:45:00,
2013-06-14 07:50:00,70.1,61.0,29.85,SW,225,1.0,-999.0,73,0.00,,,0.00,Wunderground v.1.15,2013-06-14 11:50:00,
2013-06-14 08:02:00,70.1,61.0,29.85,SW,225,1.0,-999.0,73,0.00,,,0.00,Wunderground v.1.15,2013-06-14 12:02:00,
2013-06-14 08:05:00,70.4,61.3,29.85,SW,221,1.0,1.0,73,0.00,,,0.00,Wunderground v.1.15,2013-06-14 12:05:00,
2013-06-14 08:10:00,70.7,61.6,29.85,SW,234,2.0,2.0,73,0.00,,,0.00,Wunderground v.1.15,2013-06-14 12:10:00,
2013-06-14 08:15:00,70.9,61.4,29.86,SSE,150,2.0,2.0,72,0.00,,,0.00,Wunderground v.1.15,2013-06-14 12:15:00,
2013-06-14 08:20:00,71.3,61.8,29.86,WSW,242,2.0,2.0,72,0.00,,,0.00,Wunderground v.1.15,2013-06-14 12:20:00,
2013-06-14 08:25:00,71.7,61.8,29.86,SW,218,1.0,2.0,71,0.00,,,0.00,Wunderground v.1.15,2013-06-14 12:25:00,
2013-06-14 08:30:00,72.0,61.7,29.86,SE,135,2.0,2.0,70,0.00,,,0.00,Wunderground v.1.15,2013-06-14 12:30:00,
2013-06-14 08:35:00,72.1,61.4,29.86,SSW,209,2.0,3.0,69,0.00,,,0.00,Wunderground v.1.15,2013-06-14 12:35:00,
2013-06-14 08:40:00,72.3,61.6,29.86,West,270,2.0,2.0,69,0.00,,,0.00,Wunderground v.1.15,2013-06-14 12:40:00,
2013-06-14 08:45:00,72.7,62.3,29.86,SSW,209,1.0,2.0,70,0.00,,,0.00,Wunderground v.1.15,2013-06-14 12:45:00,
2013-06-14 08:50:00,73.3,62.5,29.87,WSW,242,1.0,1.0,69,0.00,,,0.00,Wunderground v.1.15,2013-06-14 12:50:00,
2013-06-14 08:55:00,73.6,62.0,29.87,SSE,165,1.0,4.0,67,0.00,,,0.00,Wunderground v.1.15,2013-06-14 12:55:00,
2013-06-14 09:00:00,73.9,61.8,29.87,SW,222,1.0,1.0,66,0.00,,,0.00,Wunderground v.1.15,2013-06-14 13:00:00,
2013-06-14 09:05:00,74.3,61.3,29.88,South,169,1.0,1.0,64,0.00,,,0.00,Wunderground v.1.15,2013-06-14 13:05:00,
2013-06-14 09:10:00,74.7,62.1,29.87,NNE,17,1.0,1.0,65,0.00,,,0.00,Wunderground v.1.15,2013-06-14 13:10:00,
2013-06-14 09:15:00,75.0,62.0,29.87,WSW,242,1.0,2.0,64,0.00,,,0.00,Wunderground v.1.15,2013-06-14 13:15:00,
2013-06-14 09:20:00,75.3,61.4,29.88,NE,53,1.0,3.0,62,0.00,,,0.00,Wunderground v.1.15,2013-06-14 13:20:00,
2013-06-14 09:25:00,75.5,61.1,29.88,SE,142,1.0,3.0,61,0.00,,,0.00,Wunderground v.1.15,2013-06-14 13:25:00,
2013-06-14 09:30:00,75.8,61.8,29.88,SSW,206,1.0,1.0,62,0.00,,,0.00,Wunderground v.1.15,2013-06-14 13:30:00,
2013-06-14 09:35:00,75.7,61.3,29.88,WSW,240,1.0,2.0,61,0.00,,,0.00,Wunderground v.1.15,2013-06-14 13:35:00,
2013-06-14 09:40:00,75.4,61.5,29.88,WSW,248,2.0,2.0,62,0.00,,,0.00,Wunderground v.1.15,2013-06-14 13:40:00,
2013-06-14 09:45:00,75.4,61.5,29.88,SSW,210,2.0,2.0,62,0.00,,,0.00,Wunderground v.1.15,2013-06-14 13:45:00,
2013-06-14 09:50:00,75.6,60.7,29.88,South,182,2.0,2.0,60,0.00,,,0.00,Wunderground v.1.15,2013-06-14 13:50:00,
2013-06-14 09:55:00,75.9,60.5,29.88,NNW,343,2.0,2.0,59,0.00,,,0.00,Wunderground v.1.15,2013-06-14 13:55:00,
2013-06-14 10:00:00,76.4,62.4,29.88,SSE,166,2.0,2.0,62,0.00,,,0.00,Wunderground v.1.15,2013-06-14 14:00:00,
2013-06-14 10:05:00,77.1,63.1,29.88,NE,38,1.0,6.0,62,0.00,,,0.00,Wunderground v.1.15,2013-06-14 14:05:00,
2013-06-14 10:10:00,77.5,62.5,29.88,SSE,151,1.0,1.0,60,0.00,,,0.00,Wunderground v.1.15,2013-06-14 14:10:00,
2013-06-14 10:15:00,77.7,61.7,29.89,ESE,123,2.0,2.0,58,0.00,,,0.00,Wunderground v.1.15,2013-06-14 14:15:00,
2013-06-14 10:20:00,77.8,61.8,29.88,SSE,156,2.0,6.0,58,0.00,,,0.00,Wunderground v.1.15,2013-06-14 14:20:00,
2013-06-14 10:25:00,77.6,61.2,29.88,SE,144,2.0,6.0,57,0.00,,,0.00,Wunderground v.1.15,2013-06-14 14:25:00,
2013-06-14 10:30:00,77.8,63.3,29.88,ESE,102,2.0,2.0,61,0.00,,,0.00,Wunderground v.1.15,2013-06-14 14:30:00,
2013-06-14 10:35:00,78.3,62.3,29.88,SSE,157,2.0,6.0,58,0.00,,,0.00,Wunderground v.1.15,2013-06-14 14:35:00,
2013-06-14 10:40:00,78.5,62.0,29.88,East,81,1.0,1.0,57,0.00,,,0.00,Wunderground v.1.15,2013-06-14 14:40:00,
2013-06-14 10:45:00,79.2,62.7,29.88,SSE,163,1.0,6.0,57,0.00,,,0.00,Wunderground v.1.15,2013-06-14 14:45:00,
2013-06-14 10:50:00,79.4,62.8,29.88,SSW,194,1.0,1.0,57,0.00,,,0.00,Wunderground v.1.15,2013-06-14 14:50:00,
2013-06-14 10:55:00,79.7,62.1,29.88,SSW,207,1.0,6.0,55,0.00,,,0.00,Wunderground v.1.15,2013-06-14 14:55:00,
2013-06-14 11:00:00,79.7,61.6,29.88,NNE,23,1.0,6.0,54,0.00,,,0.00,Wunderground v.1.15,2013-06-14 15:00:00,
2013-06-14 11:05:00,79.7,62.1,29.88,East,86,2.0,6.0,55,0.00,,,0.00,Wunderground v.1.15,2013-06-14 15:05:00,
2013-06-14 11:10:00,79.9,62.3,29.88,NE,55,2.0,2.0,55,0.00,,,0.00,Wunderground v.1.15,2013-06-14 15:10:00,
2013-06-14 11:15:00,80.4,61.7,29.88,North,351,1.0,6.0,53,0.00,,,0.00,Wunderground v.1.15,2013-06-14 15:15:00,
2013-06-14 11:20:00,80.8,61.5,29.89,North,349,1.0,1.0,52,0.00,,,0.00,Wunderground v.1.15,2013-06-14 15:20:00,
2013-06-14 11:25:00,80.8,61.5,29.89,NE,51,1.0,3.0,52,0.00,,,0.00,Wunderground v.1.15,2013-06-14 15:25:00,
2013-06-14 11:30:00,80.8,59.9,29.89,North,5,1.0,1.0,49,0.00,,,0.00,Wunderground v.1.15,2013-06-14 15:30:00,
2013-06-14 11:35:00,80.7,60.3,29.89,NNE,31,2.0,2.0,50,0.00,,,0.00,Wunderground v.1.15,2013-06-14 15:35:00,
2013-06-14 11:40:00,81.0,62.3,29.90,NE,36,1.0,6.0,53,0.00,,,0.00,Wunderground v.1.15,2013-06-14 15:40:00,
2013-06-14 11:45:00,81.1,60.1,29.90,SSE,154,1.0,6.0,49,0.00,,,0.00,Wunderground v.1.15,2013-06-14 15:45:00,
2013-06-14 11:50:00,81.4,63.2,29.90,NE,44,1.0,6.0,54,0.00,,,0.00,Wunderground v.1.15,2013-06-14 15:50:00,
2013-06-14 11:55:00,81.5,60.5,29.90,North,5,1.0,6.0,49,0.00,,,0.00,Wunderground v.1.15,2013-06-14 15:55:00,
2013-06-14 12:00:00,81.8,62.5,29.90,SE,135,1.0,6.0,52,0.00,,,0.00,Wunderground v.1.15,2013-06-14 16:00:00,
2013-06-14 12:05:00,82.0,62.6,29.89,SSE,154,2.0,6.0,52,0.00,,,0.00,Wunderground v.1.15,2013-06-14 16:05:00,
2013-06-14 12:10:00,81.5,59.9,29.89,NNE,22,2.0,2.0,48,0.00,,,0.00,Wunderground v.1.15,2013-06-14 16:10:00,
2013-06-14 12:15:00,81.6,59.4,29.89,NNE,15,2.0,6.0,47,0.00,,,0.00,Wunderground v.1.15,2013-06-14 16:15:00,
2013-06-14 12:20:00,81.8,61.3,29.89,WSW,237,1.0,6.0,50,0.00,,,0.00,Wunderground v.1.15,2013-06-14 16:20:00,
2013-06-14 12:25:00,81.9,59.7,29.89,West,273,1.0,6.0,47,0.00,,,0.00,Wunderground v.1.15,2013-06-14 16:25:00,
2013-06-14 12:30:00,82.1,61.6,29.89,NNE,20,2.0,2.0,50,0.00,,,0.00,Wunderground v.1.15,2013-06-14 16:30:00,
2013-06-14 12:35:00,82.2,61.7,29.89,NW,310,2.0,6.0,50,0.00,,,0.00,Wunderground v.1.15,2013-06-14 16:35:00,
2013-06-14 12:40:00,82.2,60.0,29.89,ESE,114,2.0,2.0,47,0.00,,,0.00,Wunderground v.1.15,2013-06-14 16:40:00,
2013-06-14 12:45:00,82.1,59.9,29.89,ENE,68,2.0,6.0,47,0.00,,,0.00,Wunderground v.1.15,2013-06-14 16:45:00,
2013-06-14 12:55:00,82.1,59.3,29.89,NNE,14,2.0,6.0,46,0.00,,,0.00,Wunderground v.1.15,2013-06-14 16:55:00,
2013-06-14 13:00:00,82.1,61.6,29.89,NE,38,2.0,2.0,50,0.00,,,0.00,Wunderground v.1.15,2013-06-14 17:00:00,
2013-06-14 13:05:00,82.5,62.0,29.90,SE,133,2.0,6.0,50,0.00,,,0.00,Wunderground v.1.15,2013-06-14 17:05:00,
2013-06-14 13:10:00,82.9,59.4,29.90,North,355,1.0,6.0,45,0.00,,,0.00,Wunderground v.1.15,2013-06-14 17:10:00,
2013-06-14 13:15:00,82.9,60.0,29.90,East,92,2.0,6.0,46,0.00,,,0.00,Wunderground v.1.15,2013-06-14 17:15:00,
2013-06-14 13:20:00,83.5,61.7,29.91,NE,53,1.0,6.0,48,0.00,,,0.00,Wunderground v.1.15,2013-06-14 17:20:00,
2013-06-14 13:25:00,83.9,60.3,29.91,WNW,294,1.0,6.0,45,0.00,,,0.00,Wunderground v.1.15,2013-06-14 17:25:00,
2013-06-14 13:30:00,84.0,61.0,29.91,South,186,1.0,1.0,46,0.00,,,0.00,Wunderground v.1.15,2013-06-14 17:30:00,
2013-06-14 13:35:00,82.9,59.4,29.91,North,5,2.0,2.0,45,0.00,,,0.00,Wunderground v.1.15,2013-06-14 17:35:00,
2013-06-14 13:40:00,83.0,61.9,29.91,NE,35,2.0,6.0,49,0.00,,,0.00,Wunderground v.1.15,2013-06-14 17:40:00,
2013-06-14 13:45:00,83.5,60.5,29.90,ENE,77,1.0,6.0,46,0.00,,,0.00,Wunderground v.1.15,2013-06-14 17:45:00,
2013-06-14 13:50:00,83.7,61.9,29.91,ENE,70,1.0,6.0,48,0.00,,,0.00,Wunderground v.1.15,2013-06-14 17:50:00,
2013-06-14 13:55:00,83.7,59.5,29.90,NNE,33,1.0,6.0,44,0.00,,,0.00,Wunderground v.1.15,2013-06-14 17:55:00,
2013-06-14 14:00:00,83.8,60.2,29.90,East,83,1.0,6.0,45,0.00,,,0.00,Wunderground v.1.15,2013-06-14 18:00:00,
2013-06-14 14:05:00,84.1,59.2,29.90,North,355,1.0,6.0,43,0.00,,,0.00,Wunderground v.1.15,2013-06-14 18:05:00,
2013-06-14 14:10:00,84.0,57.8,29.90,NE,55,2.0,6.0,41,0.00,,,0.00,Wunderground v.1.15,2013-06-14 18:10:00,
2013-06-14 14:15:00,84.0,58.4,29.90,North,360,2.0,6.0,42,0.00,,,0.00,Wunderground v.1.15,2013-06-14 18:15:00,
2013-06-14 14:20:00,84.0,57.1,29.90,SW,219,2.0,2.0,40,0.00,,,0.00,Wunderground v.1.15,2013-06-14 18:20:00,
2013-06-14 14:25:00,84.0,58.4,29.90,SSE,162,1.0,6.0,42,0.00,,,0.00,Wunderground v.1.15,2013-06-14 18:25:00,
2013-06-14 14:30:00,84.3,58.7,29.90,NNW,331,1.0,6.0,42,0.00,,,0.00,Wunderground v.1.15,2013-06-14 18:30:00,
2013-06-14 14:35:00,84.3,57.3,29.90,ENE,65,2.0,6.0,40,0.00,,,0.00,Wunderground v.1.15,2013-06-14 18:35:00,
2013-06-14 14:40:00,84.5,60.2,29.90,West,270,2.0,2.0,44,0.00,,,0.00,Wunderground v.1.15,2013-06-14 18:40:00,
2013-06-14 14:45:00,84.6,57.6,29.90,NE,48,1.0,3.0,40,0.00,,,0.00,Wunderground v.1.15,2013-06-14 18:45:00,
2013-06-14 14:50:00,84.0,60.4,29.90,NNE,15,1.0,6.0,45,0.00,,,0.00,Wunderground v.1.15,2013-06-14 18:50:00,
2013-06-14 14:55:00,84.1,59.8,29.90,NNE,13,1.0,6.0,44,0.00,,,0.00,Wunderground v.1.15,2013-06-14 18:55:00,
2013-06-14 15:00:00,84.4,60.1,29.91,ENE,61,1.0,6.0,44,0.00,,,0.00,Wunderground v.1.15,2013-06-14 19:00:00,
2013-06-14 15:05:00,84.6,60.3,29.91,South,175,2.0,6.0,44,0.00,,,0.00,Wunderground v.1.15,2013-06-14 19:05:00,
2013-06-14 15:10:00,85.2,62.1,29.90,SSW,211,1.0,1.0,46,0.00,,,0.00,Wunderground v.1.15,2013-06-14 19:10:00,
2013-06-14 15:15:00,85.3,60.3,29.90,ENE,75,1.0,2.0,43,0.00,,,0.00,Wunderground v.1.15,2013-06-14 19:15:00,
2013-06-14 15:20:00,85.3,60.3,29.90,ENE,65,2.0,2.0,43,0.00,,,0.00,Wunderground v.1.15,2013-06-14 19:20:00,
2013-06-14 15:25:00,84.9,59.2,29.90,NNW,327,2.0,3.0,42,0.00,,,0.00,Wunderground v.1.15,2013-06-14 19:25:00,
2013-06-14 15:30:00,84.4,59.5,29.90,ENE,60,3.0,3.0,43,0.00,,,0.00,Wunderground v.1.15,2013-06-14 19:30:00,
2013-06-14 15:35:00,84.6,60.3,29.90,ENE,68,2.0,6.0,44,0.00,,,0.00,Wunderground v.1.15,2013-06-14 19:35:00,
2013-06-14 15:40:00,84.8,58.5,29.90,NNE,25,1.0,6.0,41,0.00,,,0.00,Wunderground v.1.15,2013-06-14 19:40:00,
2013-06-14 15:45:00,84.8,57.8,29.90,North,360,2.0,6.0,40,0.00,,,0.00,Wunderground v.1.15,2013-06-14 19:45:00,
2013-06-14 15:55:00,85.3,59.6,29.91,SSE,148,1.0,6.0,42,0.00,,,0.00,Wunderground v.1.15,2013-06-14 19:55:00,
2013-06-14 16:00:00,85.5,61.7,29.90,NNW,341,1.0,1.0,45,0.00,,,0.00,Wunderground v.1.15,2013-06-14 20:00:00,
2013-06-14 16:05:00,85.7,60.0,29.90,ENE,69,1.0,3.0,42,0.00,,,0.00,Wunderground v.1.15,2013-06-14 20:05:00,
2013-06-14 16:10:00,85.3,58.2,29.90,North,355,1.0,1.0,40,0.00,,,0.00,Wunderground v.1.15,2013-06-14 20:10:00,
2013-06-14 16:15:00,85.0,57.3,29.90,NE,35,2.0,2.0,39,0.00,,,0.00,Wunderground v.1.15,2013-06-14 20:15:00,
2013-06-14 16:20:00,84.7,57.7,29.90,ENE,77,2.0,2.0,40,0.00,,,0.00,Wunderground v.1.15,2013-06-14 20:20:00,
2013-06-14 16:25:00,84.8,59.2,29.90,NNW,340,2.0,6.0,42,0.00,,,0.00,Wunderground v.1.15,2013-06-14 20:25:00,
2013-06-14 16:30:00,84.7,57.7,29.90,NNE,30,2.0,2.0,40,0.00,,,0.00,Wunderground v.1.15,2013-06-14 20:30:00,
2013-06-14 16:35:00,84.7,57.7,29.90,NE,40,1.0,6.0,40,0.00,,,0.00,Wunderground v.1.15,2013-06-14 20:35:00,
2013-06-14 16:40:00,84.7,57.0,29.90,ENE,71,1.0,6.0,39,0.00,,,0.00,Wunderground v.1.15,2013-06-14 20:40:00,
2013-06-14 16:45:00,84.5,57.5,29.90,NE,34,2.0,6.0,40,0.00,,,0.00,Wunderground v.1.15,2013-06-14 20:45:00,
2013-06-14 16:50:00,84.3,56.6,29.90,East,101,2.0,2.0,39,0.00,,,0.00,Wunderground v.1.15,2013-06-14 20:50:00,
2013-06-14 16:55:00,84.6,58.3,29.90,ENE,72,1.0,6.0,41,0.00,,,0.00,Wunderground v.1.15,2013-06-14 20:55:00,
2013-06-14 17:00:00,84.6,57.6,29.90,NNE,27,1.0,6.0,40,0.00,,,0.00,Wunderground v.1.15,2013-06-14 21:00:00,
2013-06-14 17:05:00,84.8,58.5,29.91,NNW,332,1.0,6.0,41,0.00,,,0.00,Wunderground v.1.15,2013-06-14 21:05:00,
2013-06-14 17:10:00,85.1,60.1,29.91,SSE,159,1.0,1.0,43,0.00,,,0.00,Wunderground v.1.15,2013-06-14 21:10:00,
2013-06-14 17:15:00,85.2,59.5,29.91,NE,37,1.0,1.0,42,0.00,,,0.00,Wunderground v.1.15,2013-06-14 21:15:00,
2013-06-14 17:20:00,85.2,57.4,29.91,NNE,33,2.0,2.0,39,0.00,,,0.00,Wunderground v.1.15,2013-06-14 21:20:00,
2013-06-14 17:25:00,85.1,58.1,29.91,ENE,59,1.0,2.0,40,0.00,,,0.00,Wunderground v.1.15,2013-06-14 21:25:00,
2013-06-14 17:30:00,84.8,57.1,29.91,NE,38,1.0,1.0,39,0.00,,,0.00,Wunderground v.1.15,2013-06-14 21:30:00,
2013-06-14 17:35:00,84.6,58.3,29.91,NNW,336,1.0,1.0,41,0.00,,,0.00,Wunderground v.1.15,2013-06-14 21:35:00,
2013-06-14 17:40:00,83.9,57.7,29.91,NE,44,1.0,4.0,41,0.00,,,0.00,Wunderground v.1.15,2013-06-14 21:40:00,
2013-06-14 17:45:00,83.9,58.3,29.91,NE,47,1.0,4.0,42,0.00,,,0.00,Wunderground v.1.15,2013-06-14 21:45:00,
2013-06-14 17:50:00,83.9,58.3,29.91,NE,49,1.0,1.0,42,0.00,,,0.00,Wunderground v.1.15,2013-06-14 21:50:00,
2013-06-14 17:55:00,83.7,57.5,29.91,WNW,302,2.0,3.0,41,0.00,,,0.00,Wunderground v.1.15,2013-06-14 21:55:00,
2013-06-14 18:00:00,83.6,58.7,29.90,WNW,302,2.0,2.0,43,0.00,,,0.00,Wunderground v.1.15,2013-06-14 22:00:00,
2013-06-14 18:05:00,83.8,58.3,29.91,NW,325,1.0,7.0,42,0.00,,,0.00,Wunderground v.1.15,2013-06-14 22:05:00,
2013-06-14 18:10:00,84.0,58.4,29.91,ENE,60,1.0,1.0,42,0.00,,,0.00,Wunderground v.1.15,2013-06-14 22:10:00,
2013-06-14 18:15:00,83.8,58.3,29.91,NNE,23,1.0,7.0,42,0.00,,,0.00,Wunderground v.1.15,2013-06-14 22:15:00,
2013-06-14 18:20:00,83.8,58.3,29.91,NNE,22,1.0,7.0,42,0.00,,,0.00,Wunderground v.1.15,2013-06-14 22:20:00,
2013-06-14 18:25:00,84.1,59.2,29.91,NNE,22,0.0,7.0,43,0.00,,,0.00,Wunderground v.1.15,2013-06-14 22:25:00,
2013-06-14 18:30:00,84.1,57.9,29.91,ENE,59,0.0,7.0,41,0.00,,,0.00,Wunderground v.1.15,2013-06-14 22:30:00,
2013-06-14 18:35:00,84.0,58.4,29.92,NNW,341,0.0,7.0,42,0.00,,,0.00,Wunderground v.1.15,2013-06-14 22:35:00,
2013-06-14 18:40:00,84.0,58.4,29.92,NNW,337,1.0,7.0,42,0.00,,,0.00,Wunderground v.1.15,2013-06-14 22:40:00,
2013-06-14 18:45:00,83.8,58.3,29.92,NE,34,1.0,7.0,42,0.00,,,0.00,Wunderground v.1.15,2013-06-14 22:45:00,
2013-06-14 18:55:00,83.6,58.1,29.92,NE,54,0.0,7.0,42,0.00,,,0.00,Wunderground v.1.15,2013-06-14 22:55:00,
2013-06-14 19:00:00,83.1,58.3,29.92,NNW,332,0.0,7.0,43,0.00,,,0.00,Wunderground v.1.15,2013-06-14 23:00:00,
2013-06-14 19:05:00,82.7,58.6,29.92,NNW,332,0.0,7.0,44,0.00,,,0.00,Wunderground v.1.15,2013-06-14 23:05:00,
2013-06-14 19:10:00,82.2,58.1,29.92,NNW,332,0.0,7.0,44,0.00,,,0.00,Wunderground v.1.15,2013-06-14 23:10:00,
2013-06-14 19:15:00,81.7,57.7,29.92,NNE,24,0.0,7.0,44,0.00,,,0.00,Wunderground v.1.15,2013-06-14 23:15:00,
2013-06-14 19:20:00,81.1,57.1,29.92,NNE,13,1.0,1.0,44,0.00,,,0.00,Wunderground v.1.15,2013-06-14 23:20:00,
2013-06-14 19:25:00,80.4,57.1,29.93,NNE,32,1.0,7.0,45,0.00,,,0.00,Wunderground v.1.15,2013-06-14 23:25:00,
2013-06-14 19:30:00,79.9,56.7,29.93,North,350,1.0,7.0,45,0.00,,,0.00,Wunderground v.1.15,2013-06-14 23:30:00,
2013-06-14 19:35:00,79.6,56.4,29.93,NNE,28,1.0,7.0,45,0.00,,,0.00,Wunderground v.1.15,2013-06-14 23:35:00,
2013-06-14 19:40:00,79.3,56.1,29.93,NNE,28,1.0,1.0,45,0.00,,,0.00,Wunderground v.1.15,2013-06-14 23:40:00,
2013-06-14 19:50:00,78.9,56.4,29.94,North,10,0.0,7.0,46,0.00,,,0.00,Wunderground v.1.15,2013-06-14 23:50:00,
2013-06-14 19:55:00,78.7,56.8,29.94,North,10,0.0,7.0,47,0.00,,,0.00,Wunderground v.1.15,2013-06-14 23:55:00,
2013-06-14 20:00:00,78.4,57.1,29.94,North,10,0.0,7.0,48,0.00,,,0.00,Wunderground v.1.15,2013-06-15 00:00:00,
2013-06-14 20:05:00,78.1,57.4,29.94,North,10,0.0,7.0,49,0.00,,,0.00,Wunderground v.1.15,2013-06-15 00:05:00,
2013-06-14 20:10:00,77.8,57.1,29.94,North,10,0.0,7.0,49,0.00,,,0.00,Wunderground v.1.15,2013-06-15 00:10:00,
2013-06-14 20:15:00,77.4,57.3,29.94,North,10,0.0,7.0,50,0.00,,,0.00,Wunderground v.1.15,2013-06-15 00:15:00,
2013-06-14 20:20:00,77.0,58.0,29.94,North,10,0.0,7.0,52,0.00,,,0.00,Wunderground v.1.15,2013-06-15 00:20:00,
2013-06-14 20:25:00,76.6,58.7,29.94,North,10,0.0,7.0,54,0.00,,,0.00,Wunderground v.1.15,2013-06-15 00:25:00,
2013-06-14 20:30:00,76.1,58.2,29.94,North,10,0.0,7.0,54,0.00,,,0.00,Wunderground v.1.15,2013-06-15 00:30:00,
2013-06-14 20:35:00,75.7,58.4,29.94,North,10,0.0,7.0,55,0.00,,,0.00,Wunderground v.1.15,2013-06-15 00:35:00,
2013-06-14 20:40:00,75.2,58.9,29.94,North,10,0.0,7.0,57,0.00,,,0.00,Wunderground v.1.15,2013-06-15 00:40:00,
2013-06-14 20:45:00,74.6,58.8,29.94,North,10,0.0,7.0,58,0.00,,,0.00,Wunderground v.1.15,2013-06-15 00:45:00,
2013-06-14 20:50:00,74.1,58.9,29.94,North,10,0.0,7.0,59,0.00,,,0.00,Wunderground v.1.15,2013-06-15 00:50:00,
2013-06-14 20:55:00,73.7,58.5,29.95,North,10,0.0,7.0,59,0.00,,,0.00,Wunderground v.1.15,2013-06-15 00:55:00,
2013-06-14 21:00:00,73.3,58.1,29.95,North,10,0.0,7.0,59,0.00,,,0.00,Wunderground v.1.15,2013-06-15 01:00:00,
2013-06-14 21:10:00,72.5,58.3,29.95,North,10,0.0,7.0,61,0.00,,,0.00,Wunderground v.1.15,2013-06-15 01:10:00,
2013-06-14 21:15:00,72.2,58.9,29.95,North,10,0.0,7.0,63,0.00,,,0.00,Wunderground v.1.15,2013-06-15 01:15:00,
2013-06-14 21:20:00,71.8,58.5,29.95,North,10,0.0,7.0,63,0.00,,,0.00,Wunderground v.1.15,2013-06-15 01:20:00,
2013-06-14 21:25:00,71.4,58.6,29.95,North,10,0.0,7.0,64,0.00,,,0.00,Wunderground v.1.15,2013-06-15 01:25:00,
2013-06-14 21:30:00,71.1,58.7,29.95,North,10,0.0,7.0,65,0.00,,,0.00,Wunderground v.1.15,2013-06-15 01:30:00,
2013-06-14 21:35:00,70.7,58.8,29.96,North,10,0.0,7.0,66,0.00,,,0.00,Wunderground v.1.15,2013-06-15 01:35:00,
2013-06-14 21:40:00,70.4,58.9,29.96,North,10,0.0,7.0,67,0.00,,,0.00,Wunderground v.1.15,2013-06-15 01:40:00,
2013-06-14 21:45:00,70.2,59.1,29.96,North,10,0.0,7.0,68,0.00,,,0.00,Wunderground v.1.15,2013-06-15 01:45:00,
2013-06-14 21:50:00,70.0,59.0,29.97,North,10,0.0,7.0,68,0.00,,,0.00,Wunderground v.1.15,2013-06-15 01:50:00,
2013-06-14 21:55:00,69.7,58.7,29.97,North,10,0.0,7.0,68,0.00,,,0.00,Wunderground v.1.15,2013-06-15 01:55:00,
2013-06-14 22:00:00,69.5,58.5,29.97,North,10,0.0,7.0,68,0.00,,,0.00,Wunderground v.1.15,2013-06-15 02:00:00,
2013-06-14 22:05:00,69.3,58.7,29.97,North,10,0.0,7.0,69,0.00,,,0.00,Wunderground v.1.15,2013-06-15 02:05:00,
2013-06-14 22:10:00,69.2,58.6,29.98,North,10,0.0,7.0,69,0.00,,,0.00,Wunderground v.1.15,2013-06-15 02:10:00,
2013-06-14 22:15:00,69.0,58.0,29.98,North,10,0.0,7.0,68,0.00,,,0.00,Wunderground v.1.15,2013-06-15 02:15:00,
2013-06-14 22:20:00,68.9,57.9,29.98,North,10,0.0,7.0,68,0.00,,,0.00,Wunderground v.1.15,2013-06-15 02:20:00,
2013-06-14 22:25:00,68.8,57.8,29.98,North,10,0.0,7.0,68,0.00,,,0.00,Wunderground v.1.15,2013-06-15 02:25:00,
2013-06-14 22:30:00,68.6,57.6,29.98,North,10,0.0,7.0,68,0.00,,,0.00,Wunderground v.1.15,2013-06-15 02:30:00,
2013-06-14 22:35:00,68.5,57.9,29.98,North,10,0.0,7.0,69,0.00,,,0.00,Wunderground v.1.15,2013-06-15 02:35:00,
2013-06-14 22:40:00,68.3,57.7,29.99,North,10,0.0,7.0,69,0.00,,,0.00,Wunderground v.1.15,2013-06-15 02:40:00,
2013-06-14 23:00:00,67.7,58.0,30.00,N/A,-737280,0.0,-999.0,71,0.00,,,0.00,Wunderground v.1.15,2013-06-15 03:00:00,
2013-06-14 23:05:00,67.7,58.0,30.00,N/A,-737280,0.0,-999.0,71,0.00,,,0.00,Wunderground v.1.15,2013-06-15 03:05:00,
2013-06-14 23:10:00,67.7,58.0,30.00,N/A,-737280,0.0,-999.0,71,0.00,,,0.00,Wunderground v.1.15,2013-06-15 03:10:00,
2013-06-14 23:15:00,67.1,58.5,30.00,N/A,-737280,0.0,-999.0,74,0.00,,,0.00,Wunderground v.1.15,2013-06-15 03:15:00,
2013-06-14 23:20:00,67.1,58.5,30.00,N/A,-737280,0.0,-999.0,74,0.00,,,0.00,Wunderground v.1.15,2013-06-15 03:20:00,
2013-06-14 23:25:00,67.1,58.5,30.00,N/A,-737280,0.0,-999.0,74,0.00,,,0.00,Wunderground v.1.15,2013-06-15 03:25:00,
2013-06-14 23:30:00,67.1,58.5,30.00,N/A,-737280,0.0,-999.0,74,0.00,,,0.00,Wunderground v.1.15,2013-06-15 03:30:00,
2013-06-14 23:35:00,67.1,58.5,30.00,N/A,-737280,0.0,-999.0,74,0.00,,,0.00,Wunderground v.1.15,2013-06-15 03:35:00,
2013-06-14 23:40:00,67.1,58.5,30.00,N/A,-737280,0.0,-999.0,74,0.00,,,0.00,Wunderground v.1.15,2013-06-15 03:40:00,
2013-06-14 23:45:00,66.9,58.7,30.01,N/A,-737280,0.0,-999.0,75,0.00,,,0.00,Wunderground v.1.15,2013-06-15 03:45:00,
2013-06-14 23:50:00,66.9,58.7,30.01,N/A,-737280,0.0,-999.0,75,0.00,,,0.00,Wunderground v.1.15,2013-06-15 03:50:00,
2013-06-14 23:55:00,66.9,58.7,30.01,N/A,-737280,0.0,-999.0,75,0.00,,,0.00,Wunderground v.1.15,2013-06-15 03:55:00,